| time (UTC) | temp F | wind direction | speed MPH | gust MPH | rain 1hr in | rain 24hr in | rain mn in | humidity % | barometer mb |
| 20260502235649 | 72 | 190 | 0.0 | 4.0 | 0.00 | 0.04 | 0.00 | 53 | 1016.9 |
| 20260502235149 | 73 | 190 | 0.0 | 2.0 | 0.00 | 0.05 | 0.00 | 53 | 1016.9 |
| 20260502234649 | 73 | 190 | 1.0 | 4.0 | 0.00 | 0.05 | 0.00 | 53 | 1016.9 |
| 20260502234141 | 73 | 190 | 1.0 | 4.0 | 0.00 | 0.06 | 0.00 | 54 | 1016.9 |
| 20260502233642 | 73 | 190 | 1.0 | 5.0 | 0.00 | 0.07 | 0.00 | 52 | 1016.8 |
| 20260502233141 | 73 | 190 | 1.0 | 5.0 | 0.00 | 0.08 | 0.00 | 52 | 1016.8 |
| 20260502232637 | 74 | 190 | 1.0 | 5.0 | 0.00 | 0.09 | 0.00 | 51 | 1016.7 |
| 20260502232136 | 74 | 190 | 2.0 | 5.0 | 0.00 | 0.09 | 0.00 | 50 | 1016.7 |
| 20260502231628 | 74 | 190 | 1.0 | 5.0 | 0.00 | 0.10 | 0.00 | 49 | 1016.8 |
| 20260502231126 | 74 | 190 | 1.0 | 5.0 | 0.00 | 0.11 | 0.00 | 50 | 1016.8 |
| 20260502230628 | 74 | 190 | 1.0 | 5.0 | 0.00 | 0.12 | 0.00 | 51 | 1016.8 |
| 20260502230128 | 74 | 190 | 1.0 | 6.0 | 0.00 | 0.14 | 0.00 | 50 | 1016.8 |
| 20260502225625 | 74 | 190 | 2.0 | 6.0 | 0.00 | 0.16 | 0.00 | 51 | 1016.8 |
| 20260502225124 | 74 | 190 | 2.0 | 6.0 | 0.00 | 0.18 | 0.00 | 51 | 1016.8 |
| 20260502224622 | 74 | 190 | 2.0 | 6.0 | 0.00 | 0.22 | 0.00 | 51 | 1016.8 |
| 20260502224125 | 74 | 190 | 3.0 | 7.0 | 0.00 | 0.24 | 0.00 | 51 | 1016.8 |
| 20260502223620 | 74 | 190 | 2.0 | 7.0 | 0.00 | 0.24 | 0.00 | 51 | 1016.8 |
| 20260502223119 | 74 | 190 | 2.0 | 7.0 | 0.00 | 0.24 | 0.00 | 53 | 1016.9 |
| 20260502222618 | 74 | 190 | 3.0 | 7.0 | 0.00 | 0.25 | 0.00 | 50 | 1016.8 |
| 20260502222349 | 74 | 190 | 3.0 | 6.0 | 0.00 | 0.25 | 0.00 | 50 | 1016.8 |
| 20260502221614 | 74 | 190 | 3.0 | 6.0 | 0.00 | 0.25 | 0.00 | 50 | 1016.8 |
| 20260502221113 | 75 | 190 | 3.0 | 6.0 | 0.00 | 0.26 | 0.00 | 50 | 1016.9 |
| 20260502220613 | 75 | 190 | 2.0 | 5.0 | 0.00 | 0.26 | 0.00 | 51 | 1016.9 |
| 20260502220110 | 75 | 190 | 2.0 | 6.0 | 0.00 | 0.28 | 0.00 | 50 | 1016.9 |
| 20260502215612 | 75 | 190 | 2.0 | 6.0 | 0.00 | 0.30 | 0.00 | 51 | 1016.9 |
| 20260502215105 | 75 | 190 | 2.0 | 5.0 | 0.00 | 0.31 | 0.00 | 53 | 1017.1 |
| 20260502214834 | 75 | 190 | 2.0 | 5.0 | 0.00 | 0.31 | 0.00 | 50 | 1017.1 |
| 20260502214107 | 75 | 190 | 2.0 | 6.0 | 0.00 | 0.31 | 0.00 | 51 | 1017.0 |
| 20260502213600 | 75 | 190 | 3.0 | 6.0 | 0.00 | 0.31 | 0.00 | 52 | 1017.1 |
| 20260502213100 | 74 | 190 | 2.0 | 6.0 | 0.00 | 0.31 | 0.00 | 51 | 1017.2 |
| 20260502212555 | 74 | 190 | 2.0 | 6.0 | 0.00 | 0.33 | 0.00 | 52 | 1017.2 |
| 20260502212052 | 74 | 190 | 2.0 | 6.0 | 0.00 | 0.34 | 0.00 | 52 | 1017.3 |
| 20260502211553 | 74 | 190 | 2.0 | 6.0 | 0.00 | 0.35 | 0.00 | 57 | 1017.4 |
| 20260502211054 | 73 | 190 | 2.0 | 6.0 | 0.00 | 0.35 | 0.00 | 52 | 1017.5 |
| 20260502210827 | 74 | 190 | 2.0 | 6.0 | 0.00 | 0.35 | 0.00 | 52 | 1017.6 |
| 20260502210326 | 75 | 190 | 1.0 | 7.0 | 0.00 | 0.36 | 0.00 | 51 | 1017.7 |
| 20260502205545 | 75 | 190 | 2.0 | 8.0 | 0.00 | 0.39 | 0.00 | 54 | 1017.7 |
| 20260502205317 | 74 | 190 | 3.0 | 8.0 | 0.00 | 0.44 | 0.00 | 52 | 1017.7 |
| 20260502204042 | 74 | 190 | 1.0 | 7.0 | 0.00 | 0.46 | 0.00 | 57 | 1017.8 |
| 20260502203543 | 74 | 190 | 2.0 | 8.0 | 0.00 | 0.47 | 0.00 | 53 | 1017.8 |
| 20260502203041 | 74 | 190 | 3.0 | 8.0 | 0.00 | 0.47 | 0.00 | 55 | 1017.9 |
| 20260502202545 | 74 | 190 | 3.0 | 7.0 | 0.00 | 0.48 | 0.00 | 53 | 1017.9 |
| 20260502202042 | 74 | 190 | 2.0 | 6.0 | 0.00 | 0.49 | 0.00 | 55 | 1018.0 |
| 20260502201810 | 74 | 190 | 2.0 | 8.0 | 0.00 | 0.50 | 0.00 | 54 | 1017.9 |
| 20260502201038 | 74 | 190 | 2.0 | 8.0 | 0.00 | 0.51 | 0.00 | 53 | 1018.1 |
| 20260502200538 | 74 | 190 | 1.0 | 6.0 | 0.00 | 0.52 | 0.00 | 55 | 1018.1 |
| 20260502200030 | 74 | 190 | 1.0 | 6.0 | 0.00 | 0.53 | 0.00 | 55 | 1018.1 |
| 20260502195528 | 73 | 190 | 2.0 | 6.0 | 0.00 | 0.55 | 0.00 | 56 | 1018.1 |
| 20260502195033 | 73 | 190 | 2.0 | 6.0 | 0.00 | 0.57 | 0.00 | 56 | 1018.2 |
| 20260502194529 | 74 | 190 | 3.0 | 9.0 | 0.00 | 0.60 | 0.00 | 55 | 1018.2 |
| 20260502194027 | 74 | 190 | 2.0 | 9.0 | 0.00 | 0.64 | 0.00 | 59 | 1018.2 |
| 20260502193756 | 73 | 190 | 2.0 | 5.0 | 0.00 | 0.66 | 0.00 | 55 | 1018.2 |
| 20260502193026 | 73 | 190 | 3.0 | 7.0 | 0.00 | 0.66 | 0.00 | 58 | 1018.3 |
| 20260502192527 | 73 | 190 | 3.0 | 7.0 | 0.00 | 0.66 | 0.00 | 55 | 1018.3 |
| 20260502192025 | 73 | 190 | 2.0 | 6.0 | 0.00 | 0.67 | 0.00 | 56 | 1018.4 |
| 20260502191527 | 73 | 190 | 2.0 | 8.0 | 0.00 | 0.67 | 0.00 | 57 | 1018.5 |
| 20260502191020 | 72 | 190 | 3.0 | 8.0 | 0.00 | 0.67 | 0.00 | 58 | 1018.4 |
| 20260502190521 | 73 | 190 | 3.0 | 7.0 | 0.00 | 0.68 | 0.00 | 58 | 1018.5 |
| 20260502190025 | 73 | 190 | 3.0 | 7.0 | 0.00 | 0.68 | 0.00 | 57 | 1018.5 |
| 20260502185522 | 73 | 190 | 3.0 | 7.0 | 0.00 | 0.70 | 0.00 | 60 | 1018.6 |
| 20260502185020 | 73 | 190 | 2.0 | 6.0 | 0.00 | 0.75 | 0.00 | 61 | 1018.6 |
| 20260502184529 | 72 | 190 | 2.0 | 6.0 | 0.00 | 0.79 | 0.00 | 59 | 1018.8 |
| 20260502184016 | 72 | 190 | 2.0 | 6.0 | 0.00 | 0.79 | 0.00 | 63 | 1018.9 |
| 20260502183517 | 71 | 190 | 3.0 | 12.0 | 0.00 | 0.80 | 0.00 | 60 | 1018.9 |
| 20260502183017 | 71 | 190 | 4.0 | 12.0 | 0.00 | 0.80 | 0.00 | 59 | 1019.0 |
| 20260502182022 | 72 | 190 | 3.0 | 9.0 | 0.00 | 0.80 | 0.00 | 61 | 1019.2 |
| 20260502181517 | 72 | 190 | 2.0 | 7.0 | 0.00 | 0.80 | 0.00 | 61 | 1019.1 |
| 20260502181244 | 71 | 190 | 2.0 | 7.0 | 0.00 | 0.80 | 0.00 | 62 | 1019.3 |
| 20260502180512 | 71 | 190 | 2.0 | 6.0 | 0.00 | 0.80 | 0.00 | 63 | 1019.4 |
| 20260502170457 | 70 | 190 | 3.0 | 8.0 | 0.00 | 0.81 | 0.00 | 62 | 1019.8 |
| 20260502170225 | 69 | 190 | 3.0 | 9.0 | 0.00 | 0.82 | 0.00 | 63 | 1019.8 |
| 20260502163951 | 69 | 190 | 3.0 | 8.0 | 0.00 | 0.85 | 0.00 | 65 | 1019.8 |
| 20260502163453 | 69 | 190 | 3.0 | 6.0 | 0.00 | 0.86 | 0.00 | 65 | 1019.8 |
| 20260502162953 | 68 | 190 | 3.0 | 8.0 | 0.00 | 0.87 | 0.00 | 64 | 1019.9 |
| 20260502162447 | 68 | 190 | 3.0 | 7.0 | 0.00 | 0.88 | 0.00 | 65 | 1019.9 |
| 20260502161947 | 67 | 190 | 3.0 | 10.0 | 0.00 | 0.89 | 0.00 | 66 | 1019.9 |
| 20260502161443 | 67 | 190 | 3.0 | 10.0 | 0.00 | 0.89 | 0.00 | 66 | 1019.8 |
| 20260502160941 | 67 | 190 | 2.0 | 8.0 | 0.00 | 0.90 | 0.00 | 67 | 1019.8 |
| 20260502160444 | 67 | 190 | 3.0 | 7.0 | 0.00 | 0.90 | 0.00 | 66 | 1019.8 |
| 20260502151933 | 65 | 190 | 2.0 | 7.0 | 0.00 | 0.94 | 0.00 | 65 | 1019.6 |
| 20260502151429 | 64 | 190 | 3.0 | 7.0 | 0.00 | 0.96 | 0.00 | 65 | 1019.6 |
| 20260502150928 | 64 | 190 | 3.0 | 7.0 | 0.00 | 0.98 | 0.00 | 66 | 1019.6 |
| 20260502150657 | 64 | 190 | 2.0 | 6.0 | 0.00 | 0.99 | 0.00 | 65 | 1019.6 |
| 20260502130358 | 55 | 190 | 1.0 | 5.0 | 0.00 | 1.12 | 0.00 | 1 | 1018.4 |
| 20260502123344 | 52 | 190 | 1.0 | 3.0 | 0.00 | 1.12 | 0.00 | 1 | 1017.9 |
| 20260502122844 | 52 | 190 | 1.0 | 4.0 | 0.00 | 1.12 | 0.00 | 1 | 1017.7 |
| 20260502122337 | 51 | 190 | 0.0 | 4.0 | 0.00 | 1.12 | 0.00 | 1 | 1017.7 |
| 20260502121834 | 0 | 190 | 0.0 | 0.0 | 0.00 | 1.12 | 0.00 | 1017.6 | |
| 20260502121255 | 0 | 0.0 | 0.0 | 0.00 | 1.12 | 0.00 | 1017.6 | ||
| 20260502120748 | 0 | 0.0 | 0.0 | 0.00 | 1.12 | 0.00 | 1017.5 | ||
| 20260502120159 | 0 | 0.0 | 0.0 | 0.00 | 1.12 | 0.00 | 1017.3 | ||
| 20260502115658 | 0 | 0.0 | 0.0 | 0.00 | 1.12 | 0.00 | 1017.3 | ||
| 20260502115423 | 0 | 0.0 | 0.0 | 0.00 | 1.12 | 0.00 | 1017.3 | ||
| 20260502114658 | 0 | 0.0 | 0.0 | 0.00 | 1.12 | 0.00 | 1017.2 | ||
| 20260502114150 | 0 | 0.0 | 0.0 | 0.00 | 1.12 | 0.00 | 1017.2 | ||
| 20260502113558 | 0 | 0.0 | 0.0 | 0.00 | 1.12 | 0.00 | 1017.2 | ||
| 20260502113058 | 0 | 0.0 | 0.0 | 0.00 | 1.12 | 0.00 | 1017.2 | ||
| 20260502112551 | 0 | 0.0 | 0.0 | 0.00 | 1.12 | 0.00 | 1017.0 | ||
| 20260502111957 | 0 | 0.0 | 0.0 | 0.00 | 1.12 | 0.00 | 1016.9 | ||
| 20260502111449 | 0 | 0.0 | 0.0 | 0.00 | 1.12 | 0.00 | 1016.8 | ||
| 20260502110858 | 0 | 0.0 | 0.0 | 0.00 | 1.12 | 0.00 | 1016.7 | ||
| 20260502110358 | 0 | 0.0 | 0.0 | 0.00 | 1.12 | 0.00 | 1016.7 | ||
| 20260502105854 | 0 | 0.0 | 0.0 | 0.00 | 1.12 | 0.00 | 1016.6 | ||
| 20260502105348 | 0 | 0.0 | 0.0 | 0.00 | 1.12 | 0.00 | 1016.5 | ||
| 20260502104754 | 0 | 0.0 | 0.0 | 0.00 | 1.12 | 0.00 | 1016.4 | ||
| 20260502104250 | 0 | 0.0 | 0.0 | 0.00 | 1.15 | 0.00 | 1016.3 | ||
| 20260502103745 | 0 | 0.0 | 0.0 | 0.00 | 1.17 | 0.00 | 1016.3 | ||
| 20260502103152 | 51 | 0.0 | 0.0 | 0.00 | 1.19 | 0.00 | 1 | 1016.3 | |
| 20260502102652 | 51 | 0.0 | 0.0 | 0.00 | 1.20 | 0.00 | 1 | 1016.2 | |
| 20260502102140 | 51 | 190 | 0.0 | 0.0 | 0.00 | 1.20 | 0.00 | 1 | 1016.1 |
| 20260502101630 | 51 | 190 | 0.0 | 2.0 | 0.00 | 1.21 | 0.00 | 1 | 1016.1 |
| 20260502101106 | 50 | 190 | 0.0 | 3.0 | 0.00 | 1.22 | 0.00 | 1 | 1016.1 |
| 20260502100606 | 51 | 190 | 0.0 | 3.0 | 0.00 | 1.23 | 0.00 | 1 | 1016.2 |
| 20260502100338 | 51 | 190 | 0.0 | 4.0 | 0.00 | 1.23 | 0.00 | 1 | 1016.1 |
| 20260502091103 | 51 | 190 | 1.0 | 4.0 | 0.00 | 1.36 | 0.00 | 1 | 1015.5 |
| 20260502090557 | 51 | 190 | 2.0 | 3.0 | 0.00 | 1.38 | 0.00 | 1 | 1015.4 |
| 20260502071528 | 52 | 190 | 2.0 | 5.0 | 0.00 | 1.73 | 0.00 | 1 | 1014.7 |
| 20260502071300 | 52 | 190 | 1.0 | 5.0 | 0.00 | 1.73 | 0.00 | 1 | 1014.5 |
| 20260502070528 | 52 | 190 | 1.0 | 5.0 | 0.00 | 1.73 | 0.00 | 1 | 1014.6 |
| 20260502070023 | 52 | 190 | 1.0 | 4.0 | 0.00 | 1.73 | 0.00 | 1 | 1014.8 |
| 20260502065522 | 52 | 190 | 1.0 | 3.0 | 0.00 | 1.73 | 0.00 | 1 | 1014.8 |
| 20260502065019 | 52 | 190 | 2.0 | 6.0 | 0.00 | 1.73 | 0.00 | 1 | 1014.9 |
| 20260502064750 | 52 | 190 | 2.0 | 6.0 | 0.00 | 1.73 | 0.00 | 1 | 1014.9 |
| 20260502064017 | 52 | 190 | 2.0 | 4.0 | 0.00 | 1.73 | 0.00 | 1 | 1014.9 |
| 20260502063513 | 52 | 190 | 1.0 | 4.0 | 0.00 | 1.73 | 0.00 | 1 | 1015.1 |
| 20260502063011 | 52 | 190 | 1.0 | 3.0 | 0.00 | 1.73 | 0.00 | 1 | 1015.0 |
| 20260502062013 | 52 | 190 | 1.0 | 6.0 | 0.00 | 1.73 | 0.00 | 1 | 1015.1 |
| 20260502061743 | 52 | 190 | 2.0 | 6.0 | 0.00 | 1.73 | 0.00 | 1 | 1015.0 |
| 20260502061242 | 52 | 190 | 2.0 | 5.0 | 0.00 | 1.73 | 0.00 | 1 | 1015.1 |
| 20260502060509 | 52 | 190 | 2.0 | 5.0 | 0.00 | 1.73 | 0.00 | 1 | 1015.1 |
| 20260502060006 | 52 | 190 | 2.0 | 4.0 | 0.00 | 1.73 | 0.00 | 1 | 1015.2 |
| 20260502055508 | 52 | 190 | 1.0 | 4.0 | 0.00 | 1.73 | 0.00 | 1 | 1015.1 |
| 20260502055010 | 52 | 190 | 1.0 | 3.0 | 0.00 | 1.73 | 0.00 | 1 | 1015.0 |
| 20260502054506 | 52 | 190 | 1.0 | 4.0 | 0.00 | 1.74 | 0.00 | 1 | 1015.0 |
| 20260502054005 | 51 | 190 | 1.0 | 4.0 | 0.00 | 1.74 | 0.00 | 1 | 1015.0 |
| 20260502053501 | 51 | 190 | 1.0 | 6.0 | 0.00 | 1.74 | 0.00 | 1 | 1015.1 |
| 20260502053000 | 52 | 190 | 2.0 | 6.0 | 0.00 | 1.74 | 0.00 | 1 | 1015.0 |
| 20260502052459 | 52 | 190 | 2.0 | 7.0 | 0.00 | 1.74 | 0.00 | 1 | 1015.0 |
| 20260502052000 | 52 | 190 | 2.0 | 7.0 | 0.00 | 1.74 | 0.00 | 1 | 1014.9 |
| 20260502051459 | 52 | 190 | 2.0 | 7.0 | 0.00 | 1.74 | 0.00 | 1 | 1015.0 |
| 20260502050958 | 52 | 190 | 2.0 | 6.0 | 0.00 | 1.74 | 0.00 | 1 | 1015.1 |
| 20260502050222 | 52 | 190 | 2.0 | 9.0 | 0.00 | 1.74 | 1.74 | 1 | 1015.1 |
| 20260502045452 | 52 | 190 | 3.0 | 9.0 | 0.00 | 1.74 | 1.74 | 1 | 1014.9 |
| 20260502044951 | 52 | 190 | 2.0 | 7.0 | 0.00 | 1.74 | 1.74 | 1 | 1014.8 |
| 20260502044445 | 53 | 190 | 3.0 | 9.0 | 0.00 | 1.74 | 1.74 | 1 | 1014.9 |
| 20260502043945 | 53 | 190 | 3.0 | 9.0 | 0.00 | 1.74 | 1.74 | 1 | 1014.8 |
| 20260502043445 | 53 | 190 | 4.0 | 8.0 | 0.00 | 1.74 | 1.74 | 1 | 1014.7 |
| 20260502042946 | 53 | 190 | 3.0 | 9.0 | 0.00 | 1.74 | 1.74 | 1 | 1014.7 |
| 20260502042447 | 53 | 190 | 3.0 | 9.0 | 0.00 | 1.74 | 1.74 | 1 | 1014.7 |
| 20260502041949 | 53 | 190 | 3.0 | 9.0 | 0.00 | 1.74 | 1.74 | 1 | 1014.7 |
| 20260502041712 | 53 | 190 | 3.0 | 7.0 | 0.00 | 1.74 | 1.74 | 1 | 1014.7 |
| 20260502041214 | 54 | 190 | 3.0 | 10.0 | 0.00 | 1.74 | 1.74 | 1 | 1014.7 |
| 20260502040445 | 54 | 190 | 3.0 | 10.0 | 0.00 | 1.74 | 1.74 | 1 | 1014.6 |
| 20260502040214 | 54 | 190 | 3.0 | 9.0 | 0.00 | 1.74 | 1.74 | 1 | 1014.5 |
| 20260502035442 | 54 | 190 | 2.0 | 8.0 | 0.00 | 1.74 | 1.74 | 1 | 1014.5 |
| 20260502034943 | 54 | 190 | 2.0 | 5.0 | 0.00 | 1.74 | 1.74 | 1 | 1014.4 |
| 20260502034445 | 54 | 190 | 2.0 | 6.0 | 0.00 | 1.74 | 1.74 | 1 | 1014.4 |
| 20260502033946 | 54 | 190 | 2.0 | 6.0 | 0.00 | 1.74 | 1.74 | 1 | 1014.4 |
| 20260502033445 | 54 | 190 | 3.0 | 9.0 | 0.00 | 1.74 | 1.74 | 1 | 1014.3 |
| 20260502032947 | 54 | 190 | 3.0 | 9.0 | 0.00 | 1.74 | 1.74 | 1 | 1014.3 |
| 20260502032441 | 54 | 190 | 3.0 | 7.0 | 0.00 | 1.74 | 1.74 | 1 | 1014.3 |
| 20260502031940 | 54 | 190 | 3.0 | 9.0 | 0.00 | 1.74 | 1.74 | 1 | 1014.3 |
| 20260502031442 | 54 | 190 | 3.0 | 8.0 | 0.00 | 1.74 | 1.74 | 1 | 1014.3 |
| 20260502030934 | 54 | 190 | 3.0 | 8.0 | 0.00 | 1.74 | 1.74 | 1 | 1014.3 |
| 20260502030704 | 54 | 190 | 2.0 | 7.0 | 0.00 | 1.74 | 1.74 | 1 | 1014.2 |
| 20260502025927 | 54 | 190 | 2.0 | 7.0 | 0.00 | 1.74 | 1.74 | 1 | 1014.1 |
| 20260502025432 | 54 | 190 | 2.0 | 6.0 | 0.00 | 1.74 | 1.74 | 1 | 1014.0 |
| 20260502024927 | 54 | 190 | 2.0 | 9.0 | 0.00 | 1.74 | 1.74 | 1 | 1014.0 |
| 20260502024427 | 54 | 190 | 3.0 | 9.0 | 0.00 | 1.74 | 1.74 | 1 | 1014.0 |
| 20260502023930 | 55 | 190 | 3.0 | 6.0 | 0.00 | 1.74 | 1.74 | 1 | 1013.9 |
| 20260502023429 | 55 | 190 | 2.0 | 6.0 | 0.00 | 1.74 | 1.74 | 1 | 1014.1 |
| 20260502022921 | 55 | 190 | 2.0 | 5.0 | 0.00 | 1.74 | 1.74 | 1 | 1014.0 |
| 20260502022426 | 55 | 190 | 2.0 | 6.0 | 0.00 | 1.74 | 1.74 | 1 | 1013.9 |
| 20260502021921 | 55 | 190 | 2.0 | 9.0 | 0.00 | 1.74 | 1.74 | 1 | 1013.7 |
| 20260502021423 | 55 | 190 | 2.0 | 9.0 | 0.00 | 1.74 | 1.74 | 1 | 1013.5 |
| 20260502020917 | 55 | 190 | 3.0 | 7.0 | 0.00 | 1.74 | 1.74 | 1 | 1013.3 |
| 20260502020422 | 55 | 190 | 3.0 | 9.0 | 0.00 | 1.74 | 1.74 | 1 | 1013.1 |
| 20260502015914 | 55 | 190 | 3.0 | 9.0 | 0.00 | 1.74 | 1.74 | 1 | 1013.1 |
| 20260502015414 | 55 | 190 | 3.0 | 9.0 | 0.00 | 1.74 | 1.74 | 1 | 1012.9 |
| 20260502014912 | 55 | 190 | 3.0 | 9.0 | 0.00 | 1.74 | 1.74 | 1 | 1012.6 |
| 20260502014412 | 55 | 190 | 3.0 | 9.0 | 0.00 | 1.74 | 1.74 | 1 | 1012.2 |
| 20260502014150 | 55 | 190 | 2.0 | 8.0 | 0.00 | 1.74 | 1.74 | 1 | 1011.9 |
| 20260502013413 | 55 | 190 | 3.0 | 8.0 | 0.00 | 1.74 | 1.74 | 1 | 1011.7 |
| 20260502012913 | 55 | 190 | 3.0 | 8.0 | 0.01 | 1.74 | 1.74 | 1 | 1011.6 |
| 20260502012406 | 55 | 190 | 3.0 | 12.0 | 0.01 | 1.74 | 1.74 | 1 | 1011.5 |
| 20260502011907 | 55 | 190 | 3.0 | 12.0 | 0.02 | 1.74 | 1.74 | 1 | 1011.6 |
| 20260502011415 | 56 | 190 | 3.0 | 10.0 | 0.03 | 1.74 | 1.74 | 1 | 1011.7 |
| 20260502010907 | 56 | 190 | 3.0 | 7.0 | 0.03 | 1.74 | 1.74 | 1 | 1011.6 |
| 20260502010636 | 56 | 190 | 2.0 | 7.0 | 0.03 | 1.74 | 1.74 | 1 | 1011.7 |
| 20260502005905 | 56 | 190 | 2.0 | 7.0 | 0.04 | 1.74 | 1.74 | 1 | 1011.9 |
| 20260502005404 | 56 | 190 | 2.0 | 5.0 | 0.04 | 1.74 | 1.74 | 1 | 1012.3 |
| 20260502004859 | 56 | 190 | 3.0 | 10.0 | 0.05 | 1.74 | 1.74 | 1 | 1012.3 |
| 20260502004359 | 56 | 190 | 3.0 | 10.0 | 0.06 | 1.74 | 1.74 | 1 | 1012.2 |
| 20260502003900 | 56 | 190 | 3.0 | 8.0 | 0.07 | 1.74 | 1.74 | 1 | 1012.1 |
| 20260502003359 | 56 | 190 | 4.0 | 8.0 | 0.08 | 1.74 | 1.74 | 1 | 1011.9 |
| 20260502002901 | 57 | 190 | 3.0 | 9.0 | 0.07 | 1.73 | 1.73 | 1 | 1011.9 |
| 20260502002359 | 57 | 190 | 2.0 | 9.0 | 0.08 | 1.73 | 1.73 | 1 | 1011.6 |
| 20260502001853 | 57 | 190 | 2.0 | 7.0 | 0.08 | 1.72 | 1.72 | 1 | 1011.9 |
| 20260502001351 | 57 | 190 | 3.0 | 8.0 | 0.07 | 1.71 | 1.71 | 1 | 1011.8 |
| 20260502000853 | 57 | 190 | 3.0 | 9.0 | 0.08 | 1.71 | 1.71 | 1 | 1011.8 |
| 20260502000354 | 57 | 190 | 3.0 | 9.0 | 0.09 | 1.71 | 1.71 | 1 | 1011.9 |